Regional Weather Roundup
Issued by NWS

Home | Current Version | Previous Version | Graphics & Text | Print | Product List | Glossary On
Versions: 1 2 3 4 5 6 7 8 9 10 11 12 13 14 15 16 17 18 19 20 21 22 23 24 25 26 27 28 29 30 31 32 33 34 35 36 37 38 39 40 41 42 43 44 45 46 47 48 49 50
429
ASUS43 KIND 301559
RWRIN

WEATHER ROUNDUP FOR INDIANA
NATIONAL WEATHER SERVICE INDIANAPOLIS IN
1200 PM EDT THU MAR 30 2017

NOTE: "FAIR" INDICATES FEW OR NO CLOUDS BELOW 12,000 FEET WITH NO
SIGNIFICANT WEATHER AND/OR OBSTRUCTIONS TO VISIBILITY.

* - STATION DOES NOT REPORT WEATHER SUCH AS PRECIPITATION OR FOG.

+ - STATION NOT QUALITY CONTROLLED BY THE NATIONAL WEATHER SERVICE.
    USE DATA WITH CAUTION...ESPECIALLY DEWPOINT AND RELATIVE
    HUMIDITY OBSERVATIONS.

INZ001>003-010>013-019-020-301700-
NORTHWEST INDIANA

CITY           SKY/WX    TMP DP  RH WIND       PRES   REMARKS
GARY /AIRPORT/ LGT RAIN  46  41  81 SE15G26   29.73F
KNOX *+        CLOUDY    43  30  61 E16G22    29.74F
LA PORTE +     RAIN      43  40  91 SE18      29.78R
MONTICELLO +   CLOUDY    45  42  90 E10G20    29.71F

$$

LMZ046-743>745-301700-
SOUTHERN LAKE MICHIGAN

STATION/POSITION TIME  TEMP    WIND        PRES    WAVE
                       AIR SEA DIR/SP/G            HT
                 (UTC) (F)     (DEG/KT/KT) (MB)    (FT)
BURNS HARBOR     1540   45     120/ 17/ 23 1007.1F
MICHIGAN CITY    1530   44     100/ 14/ 23   N/A

$$

INZ004-005-014>016-021>024-301700-
NORTH CENTRAL INDIANA

CITY           SKY/WX    TMP DP  RH WIND       PRES   REMARKS
ELKHART        LGT RAIN  43  39  87 E17G23    29.78F
GOSHEN         LGT RAIN  43  38  82 E12       29.80F
SOUTH BEND     LGT RAIN  43  32  65 SE21G30   29.78F
WARSAW +       LGT RAIN  41  37  87 E12       29.79S

$$

INZ006>009-017-018-025>027-301700-
NORTHEAST INDIANA

CITY           SKY/WX    TMP DP  RH WIND       PRES   REMARKS
ANGOLA *+      PTSUNNY   39  32  75 E18       29.83F
AUBURN +       LGT RAIN  41  37  87 E13       29.83F
FORT WAYNE     CLOUDY    44  39  82 NE14G28   29.82F
KENDALLVILLE + RAIN      40  38  94 E15G24    29.81F

$$

INZ028-029-035-036-043>045-051>053-301700-
WEST CENTRAL INDIANA

CITY           SKY/WX    TMP DP  RH WIND       PRES   REMARKS
CRAWFORDSVL +  PTSUNNY   58  57  99 E9        29.67F
GREENCASTLE +  CLOUDY    63  52  67 E8        29.68F
LAFAYETTE      CLOUDY    49  47  93 E13       29.69F
TERRE HAUTE    PTSUNNY   64  56  75 SE10      29.64F

$$

INZ030>032-037>040-046>048-054>057-064-065-301700-
CENTRAL INDIANA

CITY           SKY/WX    TMP DP  RH WIND       PRES   REMARKS
CP ATTERBURY + LGT RAIN  63  54  72 S8        29.70S
COLUMBUS       SUNNY     64  57  77 S13       29.70F
FRANKFORT +    CLOUDY    55  50  83 SE17      29.71F
GREENWOOD *+   CLOUDY    62  54  74 SE7       29.70F
INDIANAPOLIS   CLOUDY    61  52  72 SE12      29.71S
-EAGLE CREEK   PTSUNNY   60  50  69 SE8       29.69F
KOKOMO +       MOSUNNY   49  45  86 E23G30    29.72F
SHELBYVILLE    CLOUDY    68  55  63 S15       29.69F
ZIONSVILLE +   CLOUDY    57  50  77 E14       29.71F

$$

INZ033-034-041-042-049-050-058-059-301700-
EAST CENTRAL INDIANA

CITY           SKY/WX    TMP DP  RH WIND       PRES   REMARKS
MUNCIE         CLOUDY    53  46  77 E16       29.75F
RICHMOND +     CLOUDY    54  50  87 SE7       29.76F

$$

INZ060-061-067>069-081>083-085>088-301700-
SOUTHWEST INDIANA

CITY           SKY/WX    TMP DP  RH WIND       PRES   REMARKS
EVANSVILLE     PTSUNNY   73  56  54 S12G25    29.64F
HUNTINGBURG *+ PTSUNNY   71  58  63 S17G26    29.67F

$$

INZ062-063-066-070>080-084-089>092-301700-
SOUTH CENTRAL AND SOUTHEAST INDIANA

CITY           SKY/WX    TMP DP  RH WIND       PRES   REMARKS
BLOOMINGTON    CLOUDY    68  55  63 S6        29.67S
MADISON *+     CLOUDY    68  54  60 S10G16    29.74F
SEYMOUR +      PTSUNNY   66  55  68 S12       29.69F

$$





USA.gov is the U.S. government's official web portal to all federal, state and local government web resources and services.